Regional Weather Roundup
Issued by NWS

Home | Current Version | Previous Version | Graphics & Text | Print | Product List | Glossary On
Versions: 1 2 3 4 5 6 7 8 9 10 11 12 13 14 15 16 17 18 19 20 21 22 23 24 25 26 27 28 29 30 31 32 33 34 35 36 37 38 39 40 41 42 43 44 45 46 47 48 49 50
000
ASUS43 KLOT 281308
RWRIL

ILLINOIS REGIONAL WEATHER ROUNDUP
NATIONAL WEATHER SERVICE CHICAGO/ROMEOVILLE IL
800 AM CDT SAT MAR 28 2015

NOTE: "FAIR" INDICATES FEW OR NO CLOUDS BELOW 12,000 FEET WITH NO
SIGNIFICANT WEATHER AND/OR OBSTRUCTIONS TO VISIBILITY.

* THESE STATIONS ARE NOT UNDER NWS QUALITY CONTROL. THEY ALSO MAY NOT
  REPORT WEATHER SUCH AS PRECIPITATION OR FOG.

ILZ001-002-007-009-015-016-024-281400-
NORTHWEST ILLINOIS

CITY           SKY/WX    TMP DP  RH WIND       PRES   REMARKS
MOLINE         SUNNY     21  15  78 CALM      30.31R
STERLING*      SUNNY     23  18  80 CALM      30.31R
SAVANNA*       SUNNY     22  17  80 CALM      30.32R
$$

ILZ003-004-008-010-011-017-018-281400-
NORTH CENTRAL ILLINOIS

CITY           SKY/WX    TMP DP  RH WIND       PRES   REMARKS
ROCKFORD       MOSUNNY   22  16  78 CALM      30.33R
FREEPORT*      SUNNY     18  15  88 CALM      30.32R
ROCHELLE*      SUNNY     20  17  86 CALM      30.31R
DE KALB*       SUNNY     20  15  82 CALM      30.30R
PERU*          SUNNY     22  18  84 CALM      30.32R
$$

ILZ005-006-012>014-019>023-281400-
NORTHEAST ILLINOIS

CITY           SKY/WX    TMP DP  RH WIND       PRES   REMARKS
CHICAGO-OHARE  MOSUNNY   24  14  65 N5        30.29R WCI  18
CHICAGO-MIDWAY MOSUNNY   27  12  53 NE7       30.30R WCI  19
AURORA         SUNNY     21  16  81 NW3       30.30R
LANSING*       SUNNY     22  10  59 SE3       30.30R
JOLIET*        SUNNY     24  18  78 N3        30.31R
WAUKEGAN       SUNNY     22  16  78 N3        30.30R
DUPAGE AIRPORT SUNNY     21  16  81 N6        30.29R WCI  13
KANKAKEE*      SUNNY     23  18  80 E3        30.30R
WHEELING       SUNNY     23  16  74 N5        30.31R WCI  17
MORRIS*        SUNNY     22  17  79 CALM      30.30R
ROMEOVILLE*    SUNNY     22  17  79 N3        30.30R
NORTHERLY ISL    N/A     26  12  55 NE8         N/A  WCI  18
$$

LMZ740>746-281400-
SOUTHERN LAKE MICHIGAN

STATION/POSITION SKY/WX   TEMP    WIND        PRES    VSBY  WAVE
                          AIR SEA DIR/SP/G                  HT/PER
                          (F)     (DEG/KT/KT) (MB)    (MI)  (FT/S)
HARRISON CRIB              25      20/ 12/ 15   N/A
BURNHAM HARBOR             26      20/  8/ 13   N/A
CALUMET HARBOR             25      20/  8/ 12 1024.2R
BURNS HARBOR               19     110/  5/  7 1026.1R
MICHIGAN CITY              18      60/  5/  7   N/A
$$

ILZ025>027-034>036-040-047-049-050-058-095>099-281400-
WEST-CENTRAL ILLINOIS

CITY           SKY/WX    TMP DP  RH WIND       PRES   REMARKS
QUINCY         MOSUNNY   28  17  63 SE9       30.26R WCI  19
GALESBURG*     SUNNY     22  17  83 E6        30.30R WCI  14
MACOMB*        MOSUNNY   24  20  87 E7        30.31R WCI  16
JACKSONVILLE*  MOSUNNY   27  22  79 E6        30.30R WCI  21
PITTSFIELD*    PTSUNNY   28  21  75 E5        30.29R WCI  23
$$

ILZ028>032-037-038-041>044-048-051>054-059>061-281400-
CENTRAL ILLINOIS

CITY           SKY/WX    TMP DP  RH WIND       PRES   REMARKS
PONTIAC        SUNNY     23  18  83 CALM      30.32R
BLOOMINGTON    SUNNY     22  17  81 VRB6      30.30R WCI  15
DECATUR        SUNNY     23  18  81 E3        30.30R
PEORIA         SUNNY     26  14  60 E3        30.31R
LACON*         SUNNY     21  17  81 CALM      30.31R
LINCOLN*       SUNNY     23  19  85 CALM      30.32R
SPRINGFIELD    MOSUNNY   26  17  68 SE3       30.31R
TAYLORVILLE    PTSUNNY   27  18  69 E8        30.30R WCI  18
$$

ILZ033-039-045-046-055>057-062-063-281400-
EAST-CENTRAL ILLINOIS

CITY           SKY/WX    TMP DP  RH WIND       PRES   REMARKS
CHAMPAIGN      SUNNY     23  17  78 N5        30.29R WCI  17
DANVILLE*      SUNNY     21  18  85 N6        30.27R WCI  14
RANTOUL*       SUNNY     24  17  76 N6        30.30R WCI  17
MATTOON        SUNNY     23  15  71 NE9       30.28R WCI  13
PARIS*         SUNNY     24  19  80 CALM      30.30R
$$

ILZ079-100>102-281400-
SOUTHWEST ILLINOIS

CITY           SKY/WX    TMP DP  RH WIND       PRES   REMARKS
ALTON          PTSUNNY   27  21  80 E6        30.30R WCI  20
BELLEVILLE     CLOUDY    28  23  81 E7        30.29R WCI  21
CAHOKIA*       MOSUNNY   30  22  72 E3        30.30R
SPARTA*        SUNNY     28  21  77 E5        30.29R WCI  22
$$

ILZ064>066-069>071-074>076-080>082-084>086-088>090-092>094-281400-
SOUTH-CENTRAL ILLINOIS

CITY           SKY/WX    TMP DP  RH WIND       PRES   REMARKS
CARBONDALE     SUNNY     29  23  78 CALM      30.29R
CAIRO*         SUNNY     30  25  82 N3        30.29R
EFFINGHAM*     SUNNY     25  13  61 N3        30.31R
MARION         MOSUNNY   28  23  80 NE6       30.30R WCI  22
MT. VERNON     SUNNY     25  18  74 NE3       30.30R
CENTRALIA*     MOSUNNY   26  19  75 E6        30.30R WCI  19
SALEM*         MOSUNNY   28  19  68 NE5       30.30R WCI  23
METROPOLIS*    SUNNY     27  27 100 CALM      30.28R
$$

ILZ067-068-072-073-078-083-087-091-281400-
SOUTHEAST ILLINOIS

CITY           SKY/WX    TMP DP  RH WIND       PRES   REMARKS
LAWRENCEVILLE  FAIR      24  15  68 NE12      30.30R WCI  13
FLORA*         FAIR      25  16  68 NE6       30.30R WCI  18
FAIRFIELD*     SUNNY     26  19  73 N3        30.29R
HARRISBURG*    SUNNY     28  23  81 NE5       30.31R WCI  23
ROBINSON*      SUNNY     23  17  78 NE9       30.31R WCI  13
CARMI*         SUNNY     27  15  61 N8        30.30R WCI  19
$$

ABBREVIATIONS USED IN REMARKS
   TC - TEMPERATURE IN CELSIUS
  WCI - WIND CHILL INDEX
   HX - HEAT INDEX
  VSB - VISIBILITY
$$



USA.gov is the U.S. government's official web portal to all federal, state and local government web resources and services.